Emporia, KS

6:45 PM CST on February 23, 2017 (GMT -0600)
Emporia Municipal

Weather History for KEMP - July, 2013

Change the Weather History Date:

Friday, July 12, 2013

  Actual Average Record
Temperature  
Mean Temperature 83 °F 79 °F  
Max Temperature 98 °F 90 °F 100 °F (2011)
Min Temperature 68 °F 68 °F 57 °F (1999)
Degree Days  
Heating Degree Days 0 0  
Month to date heating degree days 0 0  
Since 1 June heating degree days 12 8  
Since 1 July heating degree days 0 0  
Cooling Degree Days 18 14  
Month to date cooling degree days 159 158  
Year to date cooling degree days 574 540  
Since 1 June cooling degree days 458 421  
Growing Degree Days 32 (Base 50)    
Moisture  
Dew Point 65 °F    
Average Humidity 57    
Maximum Humidity 76    
Minimum Humidity 38    
Precipitation  
Precipitation 0.00 in 0.18 in 1.15 in (2008)
Month to date precipitation 0.17 2.04  
Year to date precipitation 14.15 20.56  
Sea Level Pressure  
Sea Level Pressure 29.96 in    
Wind  
Wind Speed 10 mph (SE)    
Max Wind Speed 18 mph    
Max Gust Speed 26 mph    
Visibility 10 miles    
Events      
T = Trace of Precipitation, MM = Missing Value Source: NWS Daily Summary

Daily Weather History Graph

Daily Weather History Graph

Search for Another Location

Airport or City:

Trip Planner

Search our weather history database for the weather conditions in past years. The results will help you decide how hot, cold, wet, or windy it might be!

Date:

Astronomy

Jul. 12, 2013 Rise Set
Actual Time 6:11 AM CDT 8:49 PM CDT
Civil Twilight 5:40 AM CDT 9:20 PM CDT
Nautical Twilight 5:01 AM CDT 9:58 PM CDT
Astronomical Twilight 4:18 AM CDT 10:41 PM CDT
Moon 10:25 AM CDT (7/12) 11:04 PM CDT (7/12)
Length of Visible Light 15h 39m
Length of Day
14h 37m
Waxing Crescent, 17% of the Moon is Illuminated
Jul 12
Waxing Crescent
Jul 15
First Quarter
Jul 22
Full
Jul 29
Last Quarter
Aug 6
New

Hourly Weather History & Observations

Time (CDT) Temp. Heat Index Dew Point Humidity Pressure Visibility Wind Dir Wind Speed Gust Speed Precip Events Conditions
12:53 AM 73.0 °F - 60.1 °F 64% 29.98 in 10.0 mi ESE 8.1 mph - N/A   Clear
1:53 AM 72.0 °F - 60.1 °F 66% 29.99 in 10.0 mi SE 8.1 mph - N/A   Clear
2:53 AM 70.0 °F - 60.1 °F 71% 29.97 in 10.0 mi SE 8.1 mph - N/A   Clear
3:53 AM 71.1 °F - 60.1 °F 68% 29.97 in 10.0 mi ESE 9.2 mph - N/A   Clear
4:53 AM 70.0 °F - 60.1 °F 71% 29.97 in 10.0 mi SE 8.1 mph - N/A   Clear
5:53 AM 69.1 °F - 60.1 °F 73% 29.97 in 10.0 mi ESE 8.1 mph - N/A   Clear
6:53 AM 68.0 °F - 60.1 °F 76% 29.98 in 10.0 mi ESE 4.6 mph - N/A   Clear
7:53 AM 72.0 °F - 61.0 °F 68% 29.99 in 10.0 mi ESE 9.2 mph - N/A   Clear
8:53 AM 77.0 °F - 63.0 °F 62% 29.99 in 10.0 mi SE 12.7 mph - N/A   Clear
9:53 AM 81.0 °F 82.5 °F 64.0 °F 56% 29.98 in 10.0 mi SE 15.0 mph - N/A   Clear
10:53 AM 84.9 °F 87.1 °F 66.0 °F 53% 29.99 in 10.0 mi South 13.8 mph - N/A   Clear
11:53 AM 88.0 °F 90.7 °F 66.9 °F 49% 29.98 in 10.0 mi SSE 10.4 mph - N/A   Clear
12:53 PM 91.9 °F 95.4 °F 66.9 °F 44% 29.96 in 10.0 mi SE 12.7 mph 18.4 mph N/A   Clear
1:53 PM 93.9 °F 98.6 °F 68.0 °F 43% 29.95 in 10.0 mi Variable 6.9 mph 18.4 mph N/A   Clear
2:53 PM 95.0 °F 99.5 °F 68.0 °F 41% 29.94 in 10.0 mi SSE 9.2 mph - N/A   Clear
3:53 PM 96.1 °F 99.9 °F 66.9 °F 38% 29.93 in 10.0 mi ESE 8.1 mph 20.7 mph N/A   Clear
4:53 PM 97.0 °F 102.2 °F 68.0 °F 39% 29.91 in 10.0 mi SE 12.7 mph - N/A   Scattered Clouds
5:53 PM 96.1 °F 101.0 °F 68.0 °F 40% 29.91 in 10.0 mi SE 11.5 mph 19.6 mph N/A   Partly Cloudy
6:53 PM 93.9 °F 97.5 °F 66.9 °F 41% 29.91 in 10.0 mi SSE 13.8 mph - N/A   Clear
7:53 PM 91.9 °F 94.5 °F 66.0 °F 42% 29.91 in 10.0 mi SE 11.5 mph - N/A   Clear
8:53 PM 87.1 °F 90.6 °F 68.0 °F 53% 29.92 in 10.0 mi ESE 11.5 mph - N/A   Clear
9:53 PM 84.0 °F 87.0 °F 68.0 °F 58% 29.94 in 10.0 mi SE 12.7 mph - N/A   Clear
10:53 PM 82.0 °F 84.9 °F 68.0 °F 62% 29.95 in 10.0 mi SE 11.5 mph - N/A   Clear
11:53 PM 80.1 °F 82.3 °F 66.9 °F 64% 29.96 in 10.0 mi SE 10.4 mph - N/A   Clear